Simultaneous Nadir Overpasses (SNOs) Predictions

Prediction of SNOs between METOP-B and NOAA-19 Satellite Orbit:

Table of predicted SNOs for the next 14.0 days since TLE Epoch: 2/1/2019
Index Date (METOP-B) Time (METOP-B) Lat,Lon (METOP-B) SZA (METOP-B ) Date (NOAA-19) Time (NOAA-19) Lat,Lon (NOAA-19) SZA (NOAA-19 ) Distance(km) Time Diff (sec)
1 02/01/2019 23:27:18 78.94,-158.28 96.01 02/01/2019 23:28:14 78.93,-158.24 96.01 1.19 56
2 02/02/2019 00:18:04 -78.78, 8.00 84.20 02/02/2019 00:19:14 -78.81, 9.91 84.09 41.56 70
3 02/12/2019 17:04:41 -79.01, 117.89 87.25 02/12/2019 17:03:38 -78.99, 117.88 87.29 2.69 63
4 02/12/2019 17:55:21 79.01, -74.82 92.73 02/12/2019 17:54:34 79.00, -74.96 92.72 3.18 47
5 02/12/2019 18:46:03 -79.00, 92.45 87.29 02/12/2019 18:45:39 -78.99, 92.37 87.31 2.11 24
6 02/12/2019 19:36:43 78.99,-100.25 92.69 02/12/2019 19:36:34 78.97,-100.22 92.67 2.50 9
7 02/12/2019 20:27:25 -78.99, 67.02 87.33 02/12/2019 20:27:39 -78.96, 67.11 87.36 3.47 14
8 02/12/2019 21:18:05 78.98,-125.68 92.65 02/12/2019 21:18:35 78.97,-125.74 92.65 1.49 30
9 02/12/2019 22:08:47 -78.97, 41.59 87.37 02/12/2019 22:09:40 -78.96, 41.59 87.38 1.29 53
10 02/12/2019 22:59:27 78.97,-151.11 92.61 02/12/2019 23:00:36 78.98,-151.26 92.63 3.29 69




NCC Satellite Simultaneous Nadir Overpasses (SNOs) Prediction Service
